Temp
51 52 52 52 52 51 43 31 19 39 40 24 16 15 29 39 36 39 35 35 33 30 31 29 29 28 36 42 41 31 33 25 22 29 41 43 36 34 32 30 29 33 33 34
51 51 51 51 51 49 35 24 24 37 37 13 16 24 27 33 33 34 33 32 35 34 30 21 30 33 42 40 37 29 34 19 13 24 32 38 30 31 31 31 31 26 28 34
51 51 51 51 51 49 36 25 17 24 31 29 27 26 21 21 36 35 36 34 35 31 28 31 24 30 38 41 40 44 39 27 22 18 24 30 29 33 34 29 22 25 26 30
51 51 51 51 51 50 36 28 19 27 14 19 25 29 29 27 26 34 35 31 33 30 23 22 26 30 34 38 41 38 32 22 29 29 31 32 31 30 33 30 30 24 30 31
51 51 51 51 51 49 33 23 26 31 28 30 27 27 20 28 30 30 29 29 32 32 28 29 26 30 30 29 35 32 32 23 29 25 31 32 28 31 31 33 34 34 33 31
50 50 50 51 50 46 31 34 32 30 28 26 24 23 28 30 32 33 36 33 30 28 32 36 36 36 34 33 31 29 25 24 20 18 29 29 22 29 30 33 36 36 28 38
50 50 50 50 50 46 35 33 33 29 21 25 26 30 31 31 32 30 34 34 31 36 40 38 35 34 33 33 32 34 25 26 24 19 22 13 29 39 38 35 37 39 40 42
49 49 49 49 49 49 39 38 38 33 28 28 29 30 31 32 32 31 31 35 39 39 33 23 15 15 16 19 29 31 32 26 23 19 15 24 30 35 34 32 33 42 41 43
48 48 48 48 49 49 39 36 39 37 29 23 34 29 31 26 25 24 30 37 40 36 27 24 18 12 18 17 23 31 31 32 25 12 13 8 31 39 43 41 24 41 43 42
48 48 48 48 48 48 44 42 38 33 31 32 33 25 26 30 26 23 29 30 31 35 22 21 20 20 29 21 23 21 22 23 22 21 19 24 35 40 43 24 27 42 42 43
48 48 47 48 48 47 44 41 43 38 32 34 36 36 31 30 29 26 27 29 25 24 23 20 19 17 22 25 30 29 26 21 18 22 18 16 40 38 31 36 39 41 41 41
47 47 47 47 48 48 46 38 44 43 35 34 37 39 41 39 38 32 30 31 30 28 27 27 28 25 26 25 21 35 24 30 25 26 22 35 39 39 41 40 40 41 42 44
46 46 47 47 47 47 46 40 41 39 33 33 33 33 41 43 42 44 31 34 37 35 37 31 29 24 23 22 25 27 32 39 30 30 34 37 40 43 45 45 42 43 45 44
46 47 47 46 47 47 47 38 39 37 35 28 30 42 36 42 43 40 40 38 37 35 35 31 29 27 33 27 29 29 34 36 32 32 36 39 41 43 44 44 46 45 46 46
46 47 47 47 47 47 44 42 43 43 34 24 25 37 41 43 41 37 38 36 34 33 30 29 28 30 31 31 31 29 37 33 29 27 37 36 38 42 44 42 43 46 46 46
46 46 46 47 47 47 40 26 34 42 41 30 24 31 34 37 38 37 35 35 34 34 32 31 33 35 32 27 26 38 42 42 41 36 42 41 42 43 45 42 44 45 46 47
45 45 46 46 46 41 34 27 38 44 39 31 26 23 32 36 34 32 33 35 34 34 32 31 32 33 34 30 26 38 41 42 42 42 40 36 40 39 44 45 46 47 46 47
45 45 45 45 45 43 37 41 45 44 35 32 24 25 24 34 26 26 36 33 34 33 33 33 31 33 32 27 35 38 39 40 40 41 42 42 43 44 43 44 44 42 43 45
45 45 45 41 38 33 35 46 47 41 33 19 21 21 16 33 31 34 33 34 28 33 30 31 32 26 25 31 33 35 37 37 37 39 42 42 39 40 41 42 43 42 44 44
46 42 34 29 36 45 45 40 33 32 32 30 27 32 24 28 24 24 28 30 29 25 27 32 28 27 36 37 36 36 37 36 37 35 35 37 37 38 39 40 42 44 42 42
38 33 32 37 44 37 35 30 30 31 28 31 30 31 28 31 23 23 26 26 30 24 25 26 25 26 32 37 37 36 38 38 36 36 37 37 37 35 35 36 39 40 42 40
36 35 35 32 30 31 28 26 28 29 25 28 25 26 30 29 31 28 30 28 28 23 31 27 22 25 35 36 36 37 36 35 34 36 35 36 35 36 35 35 35 35 36 35
35 32 29 28 24 21 23 15 25 22 27 28 28 29 28 32 33 30 28 25 23 29 26 23 28 33 33 34 34 35 35 34 33 33 34 33 34 34 34 33 33 33 33 34
28 26 15 24 21 23 24 27 27 30 29 29 30 27 31 30 30 30 26 26 26 19 19 21 26 32 34 33 35 34 32 32 32 32 32 31 31 31 32 32 33 33 33 33
26 27 18 22 28 27 28 29 29 31 31 30 28 28 31 30 27 27 26 23 21 22 19 22 27 33 33 32 33 33 31 31 32 32 31 31 31 31 31 32 33 33 33 33
27 25 23 25 23 22 24 27 28 33 28 31 30 30 27 26 27 25 22 23 20 23 24 26 30 31 32 31 34 33 32 32 32 32 32 31 31 31 31 32 32 32 32 32
26 21 21 24 25 21 24 27 30 35 31 28 29 26 26 29 24 25 27 22 25 25 25 26 30 30 33 33 33 32 32 32 32 31 31 31 31 32 32 31 31 33 33 33
MSLP
1018.23 1018.24 1018.27 1018.32 1018.29 1018.28 1018.49 1019.54 1019.77 1018.32 1017.73 1018.58 1019.67 1019.90 1019.05 1017.94 1016.71 1015.83 1015.44 1015.26 1015.26 1015.18 1015.14 1014.74 1014.28 1013.82 1013.31 1013.10 1012.96 1013.26 1013.40 1013.39 1012.52 1010.26 1008.17 1008.77 1008.88 1008.52 1008.54 1007.62 1006.62 1005.32 1003.77 1001.28
1018.29 1018.16 1018.15 1018.23 1018.32 1018.32 1019.14 1020.22 1020.23 1018.78 1018.58 1019.84 1020.47 1020.02 1019.27 1018.30 1017.17 1016.33 1015.89 1015.77 1015.72 1015.70 1015.65 1015.58 1014.79 1014.09 1013.32 1013.11 1013.17 1013.27 1013.33 1013.85 1013.45 1010.93 1009.96 1009.72 1009.98 1010.34 1010.56 1009.73 1008.20 1006.90 1005.09 1002.48
1018.33 1018.19 1018.10 1018.17 1018.33 1018.52 1019.19 1020.58 1021.13 1020.49 1019.96 1020.22 1020.42 1020.28 1019.56 1018.42 1017.19 1016.55 1016.12 1016.01 1015.77 1015.94 1015.99 1015.84 1015.40 1014.56 1013.50 1013.22 1013.16 1012.98 1013.46 1013.78 1013.70 1012.93 1011.53 1011.12 1010.58 1010.46 1010.78 1011.02 1009.95 1008.08 1006.96 1005.16
1018.28 1018.16 1018.13 1018.16 1018.29 1018.53 1019.35 1020.74 1021.45 1021.15 1021.12 1020.84 1020.64 1020.25 1019.49 1018.56 1017.62 1016.78 1016.29 1016.07 1016.02 1016.25 1016.11 1015.88 1015.30 1014.74 1014.21 1013.47 1012.94 1013.06 1013.71 1013.91 1013.53 1012.96 1012.17 1011.56 1010.82 1010.44 1010.37 1010.24 1009.76 1009.24 1007.47 1006.76
1018.34 1018.14 1018.06 1018.05 1018.12 1018.54 1019.61 1020.74 1021.09 1020.87 1020.70 1020.40 1020.28 1019.95 1019.35 1018.35 1017.49 1017.07 1016.42 1016.18 1015.91 1015.88 1015.92 1015.71 1015.37 1015.04 1014.70 1014.01 1013.34 1013.29 1013.80 1013.78 1013.44 1012.72 1012.04 1011.35 1010.44 1009.96 1009.74 1009.37 1008.92 1008.39 1007.28 1006.35
1018.31 1018.18 1018.02 1017.94 1018.08 1018.45 1019.54 1020.18 1020.31 1020.33 1020.16 1020.04 1019.99 1019.40 1018.58 1017.94 1017.43 1016.65 1016.13 1015.97 1015.84 1015.33 1014.84 1014.60 1014.45 1014.36 1014.31 1013.97 1013.78 1013.80 1013.93 1013.68 1013.43 1012.40 1011.69 1011.16 1010.10 1008.46 1008.44 1008.09 1007.48 1006.97 1006.23 1004.34
1018.27 1018.19 1018.12 1017.96 1017.88 1018.16 1019.03 1019.49 1019.77 1020.19 1019.90 1019.56 1019.08 1018.46 1018.10 1017.67 1017.35 1016.93 1016.02 1015.78 1015.49 1014.16 1014.15 1014.25 1014.10 1014.20 1013.99 1013.50 1012.74 1012.83 1012.87 1013.01 1013.35 1012.37 1011.95 1010.57 1007.98 1006.80 1006.68 1006.31 1005.65 1005.14 1004.28 1003.60
1018.24 1018.15 1018.11 1018.09 1017.97 1017.93 1018.62 1018.86 1019.15 1019.25 1018.78 1018.58 1018.10 1017.70 1017.54 1017.08 1016.72 1016.48 1016.05 1014.88 1014.50 1014.18 1014.43 1014.73 1014.71 1014.44 1014.03 1012.68 1011.72 1011.43 1011.96 1012.77 1012.81 1012.25 1010.74 1008.91 1007.67 1005.92 1005.43 1004.87 1004.19 1004.21 1003.66 1002.76
1018.03 1017.99 1017.95 1017.93 1017.95 1017.90 1018.35 1018.48 1018.48 1018.68 1018.62 1017.69 1017.13 1017.00 1016.93 1016.86 1016.55 1016.15 1015.23 1014.45 1014.01 1014.09 1014.49 1014.66 1014.55 1014.67 1013.71 1012.66 1011.25 1010.37 1010.76 1011.16 1011.91 1011.71 1010.33 1008.26 1004.16 1004.00 1004.34 1004.72 1003.64 1002.88 1002.52 1002.19
1017.73 1017.70 1017.64 1017.58 1017.60 1017.62 1017.84 1017.82 1018.10 1018.40 1017.76 1016.57 1016.73 1016.45 1016.23 1016.08 1016.01 1015.84 1015.13 1014.65 1014.19 1013.88 1014.21 1014.37 1014.07 1013.45 1012.58 1011.76 1010.64 1010.23 1010.56 1010.71 1010.33 1010.04 1008.90 1005.42 1003.46 1003.41 1003.67 1004.09 1002.06 1000.84 1001.48 1001.50
1017.35 1017.31 1017.26 1017.20 1017.24 1017.36 1017.48 1017.15 1017.11 1017.64 1017.04 1015.69 1015.46 1015.14 1015.18 1015.03 1015.31 1015.48 1014.91 1014.85 1014.20 1014.15 1013.99 1013.68 1013.01 1012.52 1011.47 1010.33 1009.27 1008.76 1008.72 1009.08 1008.92 1008.66 1007.48 1004.70 1002.78 1002.59 1002.78 1001.51 1000.72 1000.65 1000.56 1000.20
1017.00 1016.93 1016.90 1016.86 1016.76 1016.75 1016.91 1016.84 1016.49 1016.65 1016.55 1014.91 1014.21 1013.93 1013.45 1013.79 1013.58 1014.41 1014.54 1014.17 1013.74 1013.23 1013.18 1012.69 1012.19 1011.75 1010.85 1009.87 1008.59 1007.91 1007.56 1006.69 1006.63 1006.66 1004.55 1002.93 1002.05 1001.42 1000.82 1000.44 1000.60 1000.38 1000.18 999.11
1016.43 1016.40 1016.30 1016.28 1016.30 1016.27 1016.30 1016.30 1016.33 1016.47 1015.98 1014.54 1013.47 1011.81 1011.60 1012.07 1011.70 1012.18 1013.55 1012.56 1012.48 1012.23 1012.00 1012.28 1011.62 1010.90 1010.28 1009.10 1007.46 1006.53 1005.67 1005.34 1005.18 1005.35 1001.94 1001.88 1000.82 1000.46 999.76 999.60 999.29 999.19 998.91 998.22
1015.61 1015.58 1015.61 1015.61 1015.62 1015.65 1015.65 1015.88 1015.87 1016.02 1015.68 1014.54 1011.02 1010.33 1010.58 1009.82 1009.97 1010.61 1010.86 1010.55 1010.99 1011.16 1011.33 1011.01 1010.26 1009.54 1008.63 1007.45 1006.36 1005.31 1004.27 1004.13 1003.10 1002.19 1001.27 1000.63 999.68 999.22 998.68 998.60 998.23 998.05 997.65 997.38
1014.86 1014.87 1014.90 1014.92 1014.98 1014.98 1015.01 1014.98 1014.76 1014.92 1015.32 1013.63 1011.68 1010.56 1008.97 1008.19 1008.85 1009.26 1009.64 1010.10 1010.28 1010.63 1010.47 1009.58 1008.82 1008.25 1007.95 1006.37 1005.54 1002.71 1003.05 1001.84 1002.27 1000.75 999.80 999.70 998.77 997.97 998.02 997.83 997.39 996.87 996.45 995.77
1014.28 1014.21 1014.28 1014.28 1014.31 1014.46 1014.73 1014.54 1013.46 1013.35 1014.13 1014.54 1012.49 1009.48 1008.03 1007.28 1007.37 1007.91 1008.49 1008.52 1009.22 1009.55 1008.86 1008.00 1007.32 1006.64 1006.70 1004.96 1002.61 1000.04 1000.68 1000.23 999.97 999.40 998.74 998.45 997.65 997.17 996.78 996.70 996.16 995.48 995.13 994.49
1013.74 1013.69 1013.63 1013.68 1013.67 1013.87 1013.96 1013.31 1012.95 1012.98 1013.94 1013.93 1012.22 1010.15 1007.75 1007.17 1007.18 1007.52 1007.61 1007.65 1007.77 1007.91 1007.49 1006.63 1006.10 1005.69 1005.54 1003.68 1001.66 997.87 999.84 999.40 998.84 998.39 998.11 997.55 996.89 996.31 995.57 995.41 994.84 994.32 993.89 993.20
1013.19 1013.08 1013.21 1013.25 1013.17 1013.00 1012.39 1011.99 1012.13 1013.03 1013.96 1013.49 1012.34 1010.31 1008.92 1007.28 1007.60 1007.64 1007.19 1007.07 1006.85 1006.38 1005.78 1005.45 1004.97 1004.82 1004.13 1002.33 999.40 999.30 999.05 998.74 998.25 997.52 997.01 996.56 995.73 995.37 995.15 994.75 994.26 993.66 993.13 992.37
1012.38 1012.36 1012.44 1012.54 1012.57 1012.24 1010.84 1010.21 1010.77 1012.08 1013.34 1012.58 1011.36 1009.93 1008.62 1007.49 1007.50 1007.15 1007.03 1006.71 1006.19 1005.75 1005.10 1004.52 1004.43 1003.58 1002.33 1000.00 999.83 999.67 999.49 999.22 998.54 997.72 996.81 995.98 995.62 995.12 994.75 994.34 993.83 993.20 992.53 992.03
1011.55 1011.70 1011.97 1011.40 1010.62 1009.98 1010.00 1009.70 1010.30 1011.24 1011.46 1011.42 1009.39 1008.27 1007.99 1007.41 1007.35 1007.21 1007.16 1006.39 1005.64 1005.01 1003.91 1003.56 1003.21 1001.77 1000.23 1000.01 999.96 999.80 999.54 999.26 998.87 998.09 997.05 996.41 995.93 995.52 994.95 994.27 993.75 993.03 992.69 992.12
1011.13 1011.15 1010.76 1010.27 1009.93 1009.91 1009.50 1009.05 1008.99 1009.01 1008.81 1008.13 1007.15 1006.93 1006.77 1006.80 1006.82 1006.87 1006.34 1005.67 1004.91 1004.41 1003.32 1003.23 1002.34 1001.13 1000.09 1000.03 999.91 999.67 999.35 999.16 999.03 998.61 997.85 997.29 996.67 996.13 995.39 994.61 993.84 993.15 992.89 992.74
1011.22 1011.46 1011.06 1010.71 1010.13 1009.54 1009.02 1008.16 1007.57 1007.49 1006.97 1005.97 1005.81 1005.59 1005.95 1005.69 1005.64 1005.86 1005.76 1005.29 1004.85 1003.69 1003.10 1002.67 1001.45 1000.56 1000.25 999.89 999.60 999.38 999.41 999.29 998.94 998.52 997.94 997.41 996.87 996.34 995.78 995.16 994.63 994.07 993.73 993.72
1011.16 1011.19 1011.23 1010.81 1009.96 1009.37 1008.28 1007.35 1006.12 1005.84 1005.23 1004.59 1004.66 1004.87 1004.95 1005.15 1005.11 1005.31 1005.38 1004.90 1004.01 1003.19 1002.84 1001.91 1000.99 1000.21 999.46 999.30 999.41 999.31 999.40 999.43 999.14 998.61 998.14 997.64 997.12 996.57 996.13 995.65 995.31 994.90 994.74 994.88
1010.97 1010.90 1010.41 1009.47 1008.41 1007.46 1005.97 1005.26 1004.71 1004.21 1004.05 1004.01 1003.99 1004.25 1004.40 1004.27 1004.59 1004.66 1004.59 1003.97 1003.63 1003.18 1002.76 1001.50 1000.36 999.62 999.79 999.66 999.61 999.66 999.70 999.77 999.45 998.96 998.48 998.06 997.52 997.04 996.58 996.19 995.77 995.61 995.57 995.66
1010.41 1010.12 1008.94 1007.58 1006.31 1005.66 1005.31 1004.86 1004.63 1004.12 1003.76 1003.75 1003.69 1003.62 1003.62 1003.81 1003.79 1003.81 1003.82 1003.66 1003.30 1002.61 1001.89 1000.93 999.96 999.73 999.87 999.90 999.90 999.86 1000.06 1000.03 999.74 999.42 999.07 998.67 998.18 997.76 997.44 997.09 996.66 996.49 996.45 996.34
1009.57 1008.87 1007.79 1006.56 1006.29 1005.77 1005.36 1004.97 1004.58 1003.90 1003.68 1003.51 1003.40 1003.21 1003.12 1002.83 1002.73 1003.02 1002.88 1002.85 1002.27 1001.45 1001.03 1000.30 999.88 999.83 999.97 999.95 999.98 1000.06 1000.28 1000.26 1000.07 999.90 999.63 999.33 998.93 998.53 998.23 997.83 997.53 997.46 997.43 997.49
1008.23 1007.22 1006.69 1006.70 1006.28 1005.89 1005.35 1004.84 1004.37 1003.90 1003.92 1003.55 1003.30 1002.79 1002.08 1001.62 1001.69 1001.69 1001.44 1001.32 1001.04 1000.68 1000.43 1000.02 999.75 999.73 999.76 1000.00 1000.12 1000.19 1000.35 1000.41 1000.32 1000.26 1000.04 999.90 999.69 999.28 998.91 998.75 998.83 998.72 998.74 998.82
Wind_Speed
3 1 3 3 1 3 7 2 3 5 4 5 1 1 3 6 6 3 3 1 3 3 6 4 3 2 1 6 2 2 4 2 4 6 15 8 6 8 6 7 7 4 2 9
3 2 3 4 2 5 3 2 2 4 4 3 3 5 5 3 3 4 4 3 4 1 3 5 3 5 5 4 5 5 4 1 4 10 2 6 6 3 6 10 2 4 6 11
5 4 2 4 4 7 5 4 3 5 4 1 0 2 4 4 3 5 3 3 3 3 2 4 5 6 5 4 5 12 3 3 6 6 7 3 4 5 1 3 3 5 4 16
5 4 1 2 5 8 5 2 4 4 3 4 2 1 2 4 4 3 3 3 1 4 3 3 4 2 7 5 8 1 7 6 7 12 14 13 13 14 13 11 9 6 5 14
9 6 1 1 5 10 4 4 3 1 2 2 3 3 4 4 5 3 4 4 8 3 4 6 9 5 3 5 5 1 3 5 3 6 9 14 18 15 13 14 13 14 17 22
6 6 7 2 10 7 3 1 2 4 4 2 3 4 5 5 3 7 8 5 8 7 12 11 11 11 7 8 8 5 5 3 1 9 9 7 9 18 14 13 15 16 16 20
4 4 5 6 7 7 4 3 3 2 5 4 5 5 6 9 7 11 15 9 6 7 5 4 3 6 13 15 18 14 8 9 4 11 2 10 12 9 14 21 21 20 21 21
6 4 3 4 4 4 3 3 2 2 4 4 6 11 9 9 7 9 11 17 13 8 4 1 5 6 7 7 13 15 16 6 5 7 7 10 14 17 12 11 19 17 21 24
7 6 5 4 5 3 2 2 2 2 2 6 5 3 4 7 5 5 6 5 6 4 2 4 5 5 6 6 6 4 12 14 9 1 5 8 23 17 11 12 17 18 20 21
11 10 9 9 8 8 3 3 5 2 4 6 7 6 6 4 2 3 6 5 5 3 4 4 6 7 5 6 7 4 4 4 15 12 11 13 5 6 5 8 14 12 7 13
11 12 11 11 10 9 5 2 6 4 6 9 10 10 9 4 4 8 3 6 4 1 3 3 5 4 6 6 12 7 10 6 5 6 9 19 8 3 11 13 5 6 5 11
11 11 11 12 12 11 8 3 3 5 7 6 4 11 16 18 21 7 5 7 4 4 2 3 1 3 3 3 3 4 9 9 6 10 10 6 6 7 9 5 9 14 13 18
13 13 12 12 12 11 10 4 2 1 3 10 12 16 18 15 20 16 9 7 12 9 10 6 6 9 3 7 8 7 8 14 14 13 22 25 25 19 22 18 16 10 16 18
16 15 14 13 14 13 12 4 3 3 3 6 8 4 6 9 15 17 21 22 5 2 4 7 6 6 6 6 10 13 10 3 16 20 23 24 24 22 22 19 18 16 17 17
13 14 14 14 14 14 8 4 6 9 7 4 7 15 22 21 16 14 16 18 16 9 7 7 9 5 8 8 8 19 9 22 13 16 22 17 18 17 15 16 17 19 20 21
16 14 12 13 12 12 0 4 3 10 8 4 6 4 8 5 8 13 14 14 10 8 4 5 6 5 5 6 10 20 14 16 19 22 21 22 22 20 21 19 21 23 21 21
13 15 14 14 13 6 4 7 4 8 7 4 5 6 5 3 2 1 2 5 5 6 4 6 5 5 7 4 14 34 12 13 16 15 12 14 14 15 15 16 17 17 17 15
13 12 12 14 15 13 11 11 20 5 1 3 5 7 5 3 2 2 2 2 2 5 3 2 3 2 3 8 18 10 6 9 11 13 10 17 19 17 17 15 12 14 14 15
13 12 12 6 4 4 6 12 17 6 5 4 4 4 5 0 3 2 1 1 4 2 4 4 4 3 9 8 5 6 7 7 11 13 15 11 10 13 11 11 11 11 13 13
13 5 3 4 4 6 8 3 4 4 6 5 6 3 6 4 1 3 2 3 3 3 6 3 4 6 9 4 3 5 7 7 10 12 12 9 10 10 11 15 13 13 8 7
1 3 3 3 3 2 4 4 5 6 6 7 6 11 11 3 3 4 4 3 2 4 4 3 4 5 1 5 6 6 7 8 10 11 12 12 11 12 14 14 13 4 3 4
2 4 4 3 2 3 4 4 3 5 6 4 4 5 6 3 3 2 2 3 2 7 2 4 3 3 3 5 6 7 5 10 12 13 11 9 11 11 11 9 6 5 5 7
1 1 2 3 4 5 7 8 5 4 4 4 4 3 4 2 2 2 2 4 6 2 4 4 3 4 6 3 4 6 6 8 10 11 9 7 7 7 5 4 3 5 6 6
3 4 6 7 7 7 7 4 3 5 2 3 3 2 4 2 3 2 4 5 1 3 3 5 4 6 3 1 2 4 7 8 9 9 8 7 6 6 7 7 5 4 6 6
4 5 7 8 6 4 3 4 2 4 2 1 2 0 3 3 3 4 2 2 5 5 5 4 4 2 0 2 3 3 4 6 6 6 7 8 7 6 7 7 6 7 8 9
4 6 5 4 1 3 3 1 1 2 1 1 0 3 2 4 4 5 8 4 6 5 4 4 2 3 1 2 2 1 2 4 4 5 6 7 8 7 5 8 9 9 8 10
6 5 3 4 6 5 4 3 3 1 3 1 1 4 9 1 3 4 5 6 5 5 4 3 4 5 3 2 2 1 1 2 3 4 5 5 6 7 9 11 9 9 9 10
Wind_Direction
6 315 268 257 255 40 57 73 24 299 13 45 31 106 295 316 317 347 302 278 13 26 330 302 297 219 303 188 191 196 198 157 279 265 286 336 53 6 26 242 229 242 187 250
349 317 280 230 207 108 110 107 244 314 73 89 328 306 305 280 290 305 335 329 55 318 299 347 330 342 310 217 204 192 177 255 340 331 339 82 81 53 11 308 228 237 290 245
347 325 285 199 184 144 86 75 11 325 27 297 178 314 281 300 289 274 238 268 294 14 301 201 274 290 293 5 249 259 159 216 187 216 256 221 283 277 193 278 288 348 261 300
3 6 283 203 183 150 88 60 248 188 286 315 210 253 263 292 302 279 304 315 156 303 287 293 265 288 304 292 273 315 145 238 238 244 267 285 281 284 282 245 231 250 310 301
25 16 325 199 175 129 78 137 160 291 259 270 180 250 255 230 258 228 270 233 288 271 257 239 284 252 231 247 301 187 177 254 237 248 254 266 271 271 262 261 254 249 250 258
13 17 22 210 162 109 125 219 301 107 250 233 129 224 234 252 328 275 244 298 307 259 250 251 248 230 216 226 235 225 202 218 200 265 268 281 262 240 238 239 239 236 238 243
342 6 12 20 186 160 138 194 129 149 263 193 205 232 235 267 250 270 283 271 245 246 339 296 286 253 247 242 245 225 232 219 175 268 136 246 242 251 230 236 243 238 248 263
342 344 353 346 339 204 142 183 175 221 250 217 248 244 256 268 265 272 270 272 253 297 264 343 341 322 350 267 237 224 214 205 245 248 235 270 286 269 237 218 253 246 248 255
294 305 311 315 311 300 120 218 171 236 289 234 238 249 217 268 264 315 241 290 280 218 173 207 219 220 226 292 296 195 207 211 211 106 226 229 240 243 249 254 266 255 247 256
273 279 283 283 281 287 235 226 167 160 248 236 213 222 228 201 184 237 286 285 316 158 208 243 233 238 217 240 233 232 159 198 223 234 242 255 309 215 158 207 252 270 223 238
277 271 272 272 269 271 273 246 181 211 259 256 228 217 226 253 201 250 260 345 314 328 225 211 235 208 226 240 234 240 219 186 205 222 241 265 219 188 193 214 252 267 268 255
266 268 273 275 271 263 252 249 207 198 246 270 241 246 240 233 239 231 204 225 249 245 287 266 287 289 268 255 253 312 256 206 209 202 221 245 243 220 235 202 260 266 261 272
262 266 267 269 269 266 254 245 226 270 263 274 250 254 246 229 233 216 236 239 231 230 222 261 239 242 175 252 254 235 250 245 246 259 252 252 255 260 269 272 260 248 252 252
256 254 253 256 261 264 258 215 221 204 275 271 275 232 238 224 221 209 213 234 242 202 196 232 246 252 203 243 254 251 233 227 247 254 267 269 267 262 264 268 264 268 255 240
277 269 261 261 263 266 268 238 236 227 217 246 288 309 277 255 226 211 209 219 230 230 235 227 241 227 247 243 256 253 227 246 242 253 259 255 270 268 268 271 270 272 267 268
291 283 282 270 266 265 236 315 281 210 204 258 273 262 261 246 200 215 215 216 220 218 227 228 224 239 205 254 253 262 259 245 239 252 257 262 264 273 271 270 271 269 272 266
278 273 276 277 270 245 185 199 193 74 146 255 268 285 277 291 107 181 219 183 203 205 219 220 231 214 210 252 268 276 274 274 266 259 265 271 262 264 267 264 267 275 272 259
280 278 273 270 271 281 249 235 257 230 281 263 266 271 331 159 229 306 216 239 190 218 236 215 210 214 213 251 250 286 302 282 282 282 253 245 262 273 272 274 276 274 266 269
276 273 279 267 222 226 237 231 223 173 180 220 213 216 262 22 238 239 247 241 241 233 237 226 181 212 227 246 298 314 340 317 309 308 293 283 260 261 273 275 280 282 288 289
298 279 203 225 217 304 267 165 154 165 185 226 253 181 243 117 144 275 273 217 235 247 233 148 219 252 265 294 340 314 320 306 311 306 304 310 300 302 298 295 298 286 292 293
157 207 230 303 258 240 208 216 216 174 211 201 217 204 238 234 159 216 196 266 221 255 261 188 227 257 238 356 324 295 309 329 318 304 304 305 302 300 300 306 300 307 321 88
185 284 289 326 314 248 224 222 215 194 228 222 179 208 191 234 159 180 193 252 251 249 197 234 247 275 292 289 303 310 348 335 321 317 314 316 308 305 305 301 330 354 63 85
67 192 258 225 250 225 220 211 208 200 213 209 177 189 173 176 165 182 200 244 235 348 247 265 243 240 236 263 327 331 353 346 322 317 332 324 319 322 327 341 351 46 72 91
203 218 240 216 205 222 214 219 199 242 209 200 171 130 184 167 170 186 228 235 311 293 242 238 235 253 15 7 313 330 357 337 331 343 341 342 351 348 359 6 15 50 79 78
215 217 239 224 230 248 249 253 321 283 274 178 79 284 165 183 194 196 228 262 247 229 237 236 249 261 93 300 312 354 1 334 340 346 357 357 2 12 17 10 38 58 68 79
221 231 256 268 8 287 323 200 274 260 240 246 4 203 245 224 194 176 209 206 228 246 222 235 208 157 274 317 336 9 333 330 356 4 8 12 16 14 17 38 45 50 64 75
234 239 240 255 269 244 231 207 231 325 330 245 279 235 219 132 204 214 189 209 224 226 243 232 204 190 198 162 274 225 228 318 7 9 10 18 14 27 44 48 39 52 59 74